Elizabeth City, NC

2:24 PM EST on February 22, 2018 (GMT -0500)
Elizabeth City Cgas-Regional

Weather History for KECG - August, 2014

Change the Weather History Date:

Tuesday, August 19, 2014

  Actual Average Record
Temperature  
Mean Temperature 78 °F 78 °F  
Max Temperature 84 °F 87 °F 96 °F (1940)
Min Temperature 71 °F 69 °F 62 °F (1943)
Degree Days  
Heating Degree Days 0 0  
Month to date heating degree days 0 0  
Since 1 June heating degree days 5 3  
Since 1 July heating degree days 0 0  
Cooling Degree Days 13 13  
Month to date cooling degree days 204 252  
Year to date cooling degree days 1098 1156  
Since 1 June cooling degree days 889 992  
Growing Degree Days 26 (Base 50)    
Moisture  
Dew Point 72 °F    
Average Humidity 87    
Maximum Humidity 100    
Minimum Humidity 74    
Precipitation  
Precipitation 0.02 in 0.21 in 3.14 in (1984)
Month to date precipitation 2.94 4.09  
Year to date precipitation 27.11 31.41  
Snow  
Snow 0.00 in - 0.00 in (2002)
Month to date snowfall 0.0  
Since 1 July snowfall 0.0  
Snow Depth 0.00 in    
Sea Level Pressure  
Sea Level Pressure 29.81 in    
Wind  
Wind Speed 5 mph (WNW)    
Max Wind Speed 13 mph    
Max Gust Speed 15 mph    
Visibility 7 miles    
Events Rain    
T = Trace of Precipitation, MM = Missing Value Source: NWS Daily Summary

Daily Weather History Graph

Daily Weather History Graph

Search for Another Location

Airport or City:

Trip Planner

Search our weather history database for the weather conditions in past years. The results will help you decide how hot, cold, wet, or windy it might be!

Date:

Astronomy

Aug. 19, 2014 Rise Set
Actual Time 6:25 AM EDT 7:50 PM EDT
Civil Twilight 5:58 AM EDT 8:17 PM EDT
Nautical Twilight 5:26 AM EDT 8:49 PM EDT
Astronomical Twilight 4:52 AM EDT 9:23 PM EDT
Moon 1:19 AM EDT (8/19) 3:41 PM EDT (8/19)
Length of Visible Light 14h 18m
Length of Day
13h 24m
Waning Crescent, 29% of the Moon is Illuminated
Aug 19
Waning Crescent
Aug 25
New
Sep 2
First Quarter
Sep 8
Full
Sep 15
Last Quarter

Hourly Weather History & Observations

Time (EDT) Temp. Heat Index Dew Point Humidity Pressure Visibility Wind Dir Wind Speed Gust Speed Precip Events Conditions
12:54 AM 73.9 °F - 72.0 °F 93% 29.82 in 7.0 mi South 8.1 mph - 0.07 in Rain Light Rain
1:54 AM 72.0 °F - 71.1 °F 97% 29.78 in 9.0 mi Calm Calm - 0.02 in   Mostly Cloudy
2:54 AM 72.0 °F - 70.0 °F 93% 29.76 in 5.0 mi West 3.5 mph - N/A   Scattered Clouds
3:01 AM 71.6 °F - 71.6 °F 100% 29.76 in 5.0 mi West 3.5 mph - N/A   Scattered Clouds
3:37 AM 73.4 °F - 71.6 °F 94% 29.77 in 6.0 mi WNW 3.5 mph - N/A   Mostly Cloudy
3:54 AM 73.0 °F - 72.0 °F 96% 29.77 in 6.0 mi Calm Calm - N/A   Overcast
4:20 AM 71.6 °F - 69.8 °F 94% 29.76 in 6.0 mi Calm Calm - N/A   Mostly Cloudy
4:54 AM 72.0 °F - 71.1 °F 97% 29.77 in 9.0 mi Calm Calm - N/A   Overcast
5:24 AM 71.6 °F - 69.8 °F 94% 29.77 in 2.0 mi SW 3.5 mph - N/A   Mostly Cloudy
5:54 AM 72.0 °F - 71.1 °F 97% 29.78 in 4.0 mi Calm Calm - N/A   Overcast
6:16 AM 71.6 °F - 71.6 °F 100% 29.79 in 5.0 mi Calm Calm - N/A   Overcast
6:36 AM 71.6 °F - 69.8 °F 94% 29.80 in 5.0 mi Calm Calm - N/A   Overcast
6:54 AM 73.0 °F - 71.1 °F 93% 29.81 in 4.0 mi Calm Calm - N/A   Overcast
7:54 AM 73.0 °F - 71.1 °F 93% 29.81 in 2.5 mi SW 3.5 mph - N/A   Overcast
8:02 AM 73.4 °F - 71.6 °F 94% 29.81 in 8.0 mi SW 4.6 mph - N/A   Overcast
8:43 AM 73.4 °F - 71.6 °F 94% 29.81 in 1.2 mi SW 5.8 mph - N/A   Overcast
8:54 AM 73.9 °F - 71.1 °F 91% 29.81 in 8.0 mi SW 6.9 mph - N/A   Overcast
9:54 AM 78.1 °F - 73.0 °F 84% 29.81 in 8.0 mi WSW 5.8 mph - N/A   Mostly Cloudy
10:14 AM 77.0 °F - 71.6 °F 83% 29.81 in 8.0 mi West 9.2 mph - N/A   Overcast
10:54 AM 77.0 °F - 72.0 °F 84% 29.83 in 6.0 mi West 9.2 mph - N/A   Haze
11:54 AM 77.0 °F - 72.0 °F 84% 29.82 in 8.0 mi WNW 9.2 mph - N/A   Overcast
12:40 PM 78.8 °F - 71.6 °F 78% 29.82 in 8.0 mi West 5.8 mph - N/A   Overcast
12:54 PM 79.0 °F - 73.0 °F 82% 29.82 in 8.0 mi West 3.5 mph - N/A   Overcast
1:54 PM 79.0 °F - 73.0 °F 82% 29.82 in 9.0 mi WSW 6.9 mph - N/A   Overcast
2:06 PM 80.6 °F 85.4 °F 73.4 °F 79% 29.81 in 10.0 mi WSW 8.1 mph - N/A   Overcast
2:54 PM 80.1 °F 84.2 °F 73.0 °F 79% 29.81 in 9.0 mi WNW 9.2 mph - N/A   Overcast
3:54 PM 81.0 °F 85.2 °F 72.0 °F 74% 29.80 in 10.0 mi West 5.8 mph - N/A   Scattered Clouds
4:18 PM 82.4 °F 88.2 °F 73.4 °F 74% 29.80 in 10.0 mi West 8.1 mph - N/A   Overcast
4:54 PM 82.0 °F 87.4 °F 73.0 °F 74% 29.80 in 10.0 mi WSW 5.8 mph - N/A   Overcast
5:08 PM 80.6 °F 85.4 °F 73.4 °F 79% 29.80 in 10.0 mi WNW 5.8 mph - N/A   Overcast
5:30 PM 80.6 °F 85.4 °F 73.4 °F 79% 29.80 in 10.0 mi WNW 3.5 mph - 0.00 in   Overcast
5:54 PM 80.1 °F 84.5 °F 73.9 °F 81% 29.81 in 10.0 mi WNW 8.1 mph - 0.00 in   Overcast
6:39 PM 78.8 °F - 73.4 °F 83% 29.81 in 10.0 mi NNE 9.2 mph - 0.00 in Rain Light Rain
6:49 PM 78.8 °F - 73.4 °F 83% 29.81 in 10.0 mi NNE 9.2 mph - 0.00 in   Overcast
6:54 PM 79.0 °F - 73.9 °F 84% 29.81 in 10.0 mi NNE 8.1 mph - 0.00 in   Overcast
7:54 PM 78.1 °F - 73.9 °F 87% 29.83 in 10.0 mi North 5.8 mph - N/A   Mostly Cloudy
8:28 PM 77.0 °F - 73.4 °F 89% 29.84 in 5.0 mi North 8.1 mph - N/A   Mostly Cloudy
8:54 PM 75.9 °F - 73.0 °F 91% 29.85 in 5.0 mi North 9.2 mph - N/A   Clear
9:54 PM 75.9 °F - 73.0 °F 91% 29.86 in 6.0 mi North 5.8 mph - N/A   Clear
10:22 PM 75.2 °F - 73.4 °F 94% 29.87 in 6.0 mi North 5.8 mph - N/A   Mostly Cloudy
10:54 PM 75.9 °F - 73.0 °F 91% 29.87 in 7.0 mi North 6.9 mph - N/A   Overcast
11:38 PM 75.2 °F - 73.4 °F 94% 29.88 in 6.0 mi North 4.6 mph - N/A   Scattered Clouds
11:54 PM 75.0 °F - 73.0 °F 94% 29.88 in 6.0 mi North 3.5 mph - N/A   Partly Cloudy